Location: Mountain Grove
(34.0887°N, 86.6172°W)
Time: 00:03:51
(UTC+00:00)

Cosmos 1570 Rocket - Pass Details

Date: 14 July 2020
Orbit: 763 x 788 km, 74.1° (Epoch: 12 August)

Event Time Altitude Azimuth Distance (km) Brightness Sun altitude
Rises 09:21:12 0° 346° (NNW) 3,244 7.6 -15.4°
Reaches altitude 10° 09:23:36 10° 349° (N) 2,318 6.9 -15.0°
Maximum altitude 09:28:50 67° 72° (ENE) 837 4.4 -14.2°
Drops below altitude 10° 09:34:05 10° 155° (SSE) 2,321 6.4 -13.4°
Sets 09:36:29 0° 158° (SSE) 3,248 7.1 -13.0°
